Wind_Speed
54 57 59 62 65 69 73 78 84 90 95 99 100 100 99 97 94 91 90 89 90 92 96 102 111 119 122 122 117 112 107 103 98 94 89 85 81 78 74 71 67 63 60
55 57 59 63 66 71 75 81 87 92 95 96 95 94 91 89 88 87 87 86 86 87 89 94 100 109 118 123 124 120 115 110 105 100 96 91 87 83 79 76 72 67 63
55 57 60 64 68 73 78 84 89 92 93 92 90 87 85 84 84 83 82 80 79 81 84 89 94 101 109 117 122 124 121 117 112 107 102 97 93 88 84 81 77 72 67
56 59 62 66 70 75 80 86 89 90 89 88 84 82 81 80 79 78 77 75 74 74 76 81 89 96 102 108 115 121 124 122 118 113 108 103 98 94 89 85 81 77 72
58 60 64 68 72 77 83 87 89 88 86 84 81 78 77 76 75 74 72 70 68 67 68 73 79 89 97 102 108 115 121 123 122 119 114 108 104 99 94 90 86 81 77
60 62 66 70 74 79 84 87 87 85 83 81 78 76 74 72 70 69 67 64 61 60 61 65 72 80 90 98 103 109 116 121 123 122 119 114 109 104 100 95 91 86 81
63 65 68 72 77 81 84 86 85 83 80 78 77 74 70 67 65 63 61 58 56 54 54 57 64 72 83 93 100 105 112 118 123 124 123 119 114 109 104 100 95 91 86
65 67 70 74 78 82 84 84 83 81 78 77 77 75 70 62 56 55 54 52 51 48 47 48 54 64 75 87 97 103 109 116 122 125 125 123 118 113 109 104 99 95 90
67 69 72 76 79 82 83 82 80 79 76 74 75 75 72 65 55 47 46 45 45 43 41 39 43 55 67 80 92 101 108 114 120 125 127 126 122 117 113 108 103 99 94
70 71 74 77 79 81 81 80 78 77 75 73 72 71 69 66 60 50 39 38 39 38 36 33 33 42 57 73 86 97 106 112 118 124 127 127 125 121 116 112 107 103 98
71 73 75 77 79 80 80 78 76 75 74 73 71 68 64 60 58 54 43 34 32 33 32 29 27 33 46 63 79 92 103 110 117 123 127 128 127 124 119 115 111 106 102
73 74 76 77 78 78 78 76 73 72 72 71 70 67 63 58 53 50 44 35 29 28 28 26 25 28 37 53 70 85 98 108 115 122 127 129 129 126 123 118 114 110 105
74 75 76 77 77 77 76 74 72 71 69 69 68 64 61 57 53 48 43 35 28 25 25 25 24 25 32 44 60 77 92 104 113 120 126 129 130 129 125 121 117 112 108
74 76 76 76 76 75 74 72 70 69 68 67 66 63 59 55 51 47 43 36 28 23 23 23 23 24 29 37 51 67 84 98 108 116 123 128 130 130 127 123 119 114 110
75 76 76 75 74 74 73 70 69 68 66 65 64 61 57 53 49 45 41 36 30 23 20 21 22 22 25 33 44 59 75 89 101 110 119 126 129 130 128 124 120 116 112
75 76 75 75 73 73 71 69 67 66 64 63 62 59 55 51 47 44 40 36 32 26 20 19 20 21 23 28 38 51 65 79 92 101 111 120 126 129 128 126 122 118 114
75 75 75 74 72 71 70 67 66 64 63 61 60 57 53 50 46 43 39 35 32 28 22 18 19 19 20 25 34 44 56 69 81 92 102 112 121 126 128 127 124 120 116
75 75 75 73 72 70 69 66 64 63 61 59 58 55 52 47 45 41 37 34 31 28 23 18 17 17 18 22 30 39 49 60 71 83 93 104 114 122 126 127 125 122 118
74 74 74 73 71 69 67 65 63 61 60 58 56 53 50 46 43 40 36 33 30 27 23 18 15 15 16 20 27 36 44 53 62 73 84 94 105 116 123 126 125 123 119
73 73 73 72 70 68 66 64 62 60 58 56 54 52 48 44 41 38 35 32 29 26 22 18 15 13 13 18 25 33 41 49 56 65 74 84 96 107 118 124 124 123 120
72 72 72 71 69 67 65 62 60 59 57 55 53 51 47 42 40 37 34 31 27 24 21 18 14 12 12 16 24 31 39 45 51 58 66 76 87 99 111 120 124 123 121
71 71 70 70 68 66 64 61 60 58 57 55 51 49 46 41 38 36 33 30 28 25 21 18 14 11 11 15 23 30 37 43 47 52 60 69 79 90 103 114 121 123 122
70 69 69 68 66 65 63 60 58 57 56 54 51 48 45 40 36 33 31 29 27 24 21 18 14 11 10 14 22 29 35 41 45 49 53 60 71 81 94 107 117 122 122
68 68 67 66 65 63 61 58 56 55 55 53 50 47 44 39 34 32 30 28 27 24 21 18 14 11 10 13 21 28 34 39 42 45 49 54 64 74 87 100 111 119 121
66 66 66 65 63 62 60 58 55 53 53 52 49 46 43 39 34 31 29 27 26 24 21 18 14 11 10 13 20 26 32 37 40 43 45 49 57 67 80 91 104 114 119
65 64 64 63 61 60 59 57 54 52 51 50 48 45 43 38 33 29 27 26 25 23 21 19 15 11 9 12 19 26 31 36 39 41 43 46 52 62 72 85 96 108 116
Wind_Direction
313 311 310 309 308 308 308 308 308 307 306 304 302 299 296 293 289 285 280 274 269 263 258 252 247 242 238 234 231 230 229 228 227 225 224 223 222 221 220 221 221 221 221
315 313 312 311 311 311 311 310 310 309 308 307 304 302 299 295 292 287 283 277 271 264 258 252 247 242 237 233 230 228 226 225 224 223 222 222 221 220 219 219 219 219 219
317 315 314 314 314 314 313 313 313 312 311 309 307 304 301 298 295 291 286 280 273 266 259 252 246 242 238 233 230 226 224 223 222 221 220 220 219 218 218 217 217 218 218
320 318 317 317 317 316 316 316 316 315 314 312 310 307 305 302 298 294 290 284 277 269 261 253 246 240 236 233 229 226 223 221 220 219 219 218 218 217 216 216 216 216 216
324 322 320 320 320 320 320 320 320 319 317 315 313 311 308 305 302 298 294 288 281 273 263 253 245 239 234 231 228 224 222 219 218 217 217 216 216 216 215 214 214 214 215
327 325 323 323 323 323 323 323 323 321 319 318 316 315 313 309 306 302 298 293 286 277 267 255 245 238 233 229 226 223 220 218 216 216 215 215 214 214 214 213 213 213 213
329 328 326 326 326 326 326 326 325 324 322 320 319 318 317 313 309 306 301 297 291 283 272 259 247 238 231 227 223 221 218 216 214 214 213 213 213 213 212 212 212 211 211
331 330 329 329 329 330 329 329 328 326 325 324 322 321 321 318 313 309 305 299 295 289 280 265 248 236 229 224 221 218 216 214 213 212 212 212 211 211 211 211 211 210 210
333 332 332 331 332 332 332 331 329 329 328 327 326 325 324 323 320 316 308 301 297 293 287 274 253 236 227 222 218 216 214 212 211 210 210 210 210 210 210 210 210 209 209
335 334 334 333 334 334 334 333 331 330 330 330 329 328 327 325 324 324 318 305 299 296 291 280 260 239 227 220 216 213 212 211 210 209 209 209 209 209 209 209 209 209 208
336 336 335 335 336 336 336 335 333 332 332 332 332 331 330 328 327 327 326 316 302 296 292 283 266 243 227 219 215 212 210 210 209 208 208 208 208 209 208 208 208 208 208
337 337 337 337 337 338 337 336 335 334 334 334 335 334 333 332 331 329 328 324 310 298 291 283 268 248 230 220 214 211 209 208 208 207 207 207 207 208 208 207 207 207 207
338 338 338 338 339 339 338 337 337 336 336 336 337 336 336 335 334 333 332 329 320 305 293 282 270 252 235 222 215 211 209 208 208 207 206 206 207 207 207 207 206 206 206
339 339 339 339 340 340 340 339 338 338 338 338 339 338 338 337 337 335 334 332 328 315 298 285 273 258 240 226 217 212 209 208 208 208 207 206 206 206 206 206 206 206 205
339 340 340 340 341 341 341 340 340 340 340 340 340 340 339 339 338 337 336 334 332 325 308 289 277 263 245 229 221 215 210 209 208 208 208 206 205 205 205 205 205 205 205
339 340 341 341 342 342 342 341 341 341 341 341 341 341 340 340 339 338 337 335 332 328 318 296 283 268 249 232 222 216 212 209 209 209 209 207 206 205 205 204 204 204 205
340 340 341 342 343 343 343 343 342 342 343 342 342 342 342 342 341 339 337 335 332 329 324 305 290 272 252 233 222 216 212 210 209 210 210 208 207 205 204 204 204 204 204
339 340 341 342 344 344 344 344 344 343 344 344 344 343 343 343 342 341 339 336 333 330 326 313 294 277 254 233 220 214 211 210 210 210 210 210 208 206 204 203 203 203 203
339 340 341 342 344 345 344 344 344 344 345 345 345 345 345 345 344 344 342 338 336 332 327 318 301 283 255 231 217 211 208 208 209 210 210 210 209 207 205 203 203 202 203
338 339 341 342 344 345 345 345 345 345 346 346 345 346 346 346 346 346 345 342 339 335 330 322 307 287 258 229 215 209 205 205 207 209 210 210 210 208 206 204 202 202 202
337 339 340 342 344 346 346 345 346 346 347 347 347 347 347 347 347 347 347 346 344 340 336 328 312 293 261 228 213 206 203 203 204 207 209 209 210 209 207 205 202 202 202
336 338 340 342 344 346 346 346 346 346 348 348 348 348 348 347 347 348 349 348 347 344 339 331 319 298 264 227 211 205 201 200 201 205 208 209 210 209 208 206 203 202 201
334 337 339 341 344 346 347 347 347 347 348 349 349 349 348 347 348 349 349 349 348 345 341 334 321 301 268 229 210 204 201 199 200 202 205 208 209 209 209 207 204 202 201
333 335 338 340 343 345 347 347 347 347 348 349 350 350 350 348 348 348 349 349 349 347 343 336 324 302 269 231 211 203 201 200 200 201 203 206 208 209 209 208 206 203 202
332 334 336 340 343 345 347 348 348 348 348 349 350 350 351 350 348 348 349 349 349 348 345 341 329 305 271 234 213 204 201 200 200 199 201 205 207 208 208 208 206 204 202
330 332 335 339 342 345 347 348 348 349 349 350 350 351 351 351 349 348 349 349 349 348 347 343 335 314 271 236 216 206 202 201 200 199 200 203 206 207 207 207 206 205 203
Height
5753 5746 5738 5730 5721 5712 5702 5690 5677 5662 5645 5627 5607 5588 5571 5555 5543 5533 5527 5524 5523 5524 5528 5535 5547 5563 5582 5603 5623 5643 5660 5677 5691 5705 5718 5730 5741 5752 5762 5772 5781 5790 5798
5743 5735 5726 5717 5707 5697 5685 5671 5656 5638 5619 5599 5580 5560 5542 5526 5513 5503 5495 5490 5488 5489 5492 5498 5507 5519 5537 5558 5582 5605 5627 5646 5663 5679 5694 5708 5721 5733 5745 5756 5767 5777 5786
5732 5723 5714 5704 5693 5680 5667 5651 5633 5613 5593 5572 5553 5534 5517 5500 5485 5473 5464 5457 5455 5455 5457 5462 5470 5481 5496 5516 5540 5566 5591 5613 5634 5652 5669 5685 5700 5714 5727 5739 5751 5763 5773
5721 5711 5700 5689 5677 5663 5647 5630 5610 5589 5568 5547 5529 5512 5494 5476 5461 5447 5436 5428 5424 5422 5423 5427 5434 5446 5460 5478 5501 5527 5553 5579 5602 5623 5642 5660 5677 5693 5708 5722 5735 5748 5759
5709 5698 5686 5674 5660 5644 5627 5607 5586 5564 5544 5524 5507 5490 5472 5454 5438 5423 5411 5402 5395 5392 5392 5396 5402 5412 5428 5445 5466 5491 5517 5544 5569 5592 5614 5634 5653 5671 5687 5703 5717 5731 5745
5696 5685 5672 5658 5643 5626 5606 5585 5564 5542 5521 5501 5485 5469 5452 5434 5416 5401 5389 5378 5371 5366 5365 5367 5373 5383 5397 5414 5434 5457 5482 5509 5536 5561 5585 5607 5628 5647 5666 5683 5699 5714 5729
5683 5671 5657 5642 5626 5607 5587 5565 5544 5523 5502 5481 5464 5449 5435 5417 5398 5382 5369 5358 5350 5345 5341 5341 5346 5355 5368 5384 5404 5426 5450 5475 5502 5529 5555 5580 5602 5624 5644 5662 5680 5697 5712
5670 5656 5642 5626 5608 5589 5568 5546 5524 5504 5484 5463 5443 5426 5414 5405 5388 5369 5354 5342 5333 5326 5322 5320 5322 5330 5341 5357 5377 5398 5420 5446 5473 5499 5526 5552 5577 5600 5622 5642 5661 5678 5695
5656 5642 5626 5609 5591 5571 5550 5529 5507 5487 5469 5450 5427 5406 5389 5379 5371 5361 5343 5330 5320 5312 5307 5303 5303 5308 5318 5332 5351 5372 5396 5420 5447 5473 5500 5527 5553 5577 5599 5621 5641 5660 5678
5642 5627 5611 5593 5575 5555 5534 5513 5492 5472 5453 5436 5417 5396 5376 5359 5347 5342 5335 5321 5310 5301 5295 5291 5290 5292 5299 5311 5328 5348 5371 5396 5421 5448 5475 5502 5528 5553 5578 5600 5621 5641 5660
5629 5613 5596 5578 5560 5540 5519 5498 5478 5459 5440 5421 5405 5387 5370 5352 5335 5323 5318 5312 5303 5294 5286 5282 5280 5281 5284 5294 5308 5328 5349 5372 5397 5423 5449 5477 5504 5530 5555 5578 5601 5622 5642
5616 5600 5583 5565 5546 5526 5506 5487 5467 5448 5430 5411 5393 5376 5360 5345 5331 5317 5308 5301 5295 5288 5281 5276 5273 5273 5275 5281 5293 5310 5329 5350 5373 5398 5424 5451 5479 5506 5532 5556 5581 5604 5625
5605 5588 5571 5553 5534 5515 5495 5476 5457 5439 5421 5403 5386 5368 5352 5336 5323 5311 5301 5293 5287 5281 5275 5271 5268 5267 5268 5272 5282 5294 5311 5331 5352 5375 5401 5428 5455 5483 5511 5537 5562 5586 5608
5594 5577 5560 5542 5523 5505 5486 5467 5448 5430 5413 5396 5379 5362 5346 5331 5318 5306 5296 5287 5282 5277 5271 5267 5264 5263 5264 5267 5273 5283 5298 5317 5337 5358 5382 5407 5435 5464 5493 5520 5545 5570 5592
5585 5568 5550 5533 5514 5496 5477 5459 5441 5423 5406 5389 5373 5357 5341 5327 5314 5302 5292 5283 5277 5272 5268 5263 5260 5259 5259 5263 5268 5276 5289 5306 5324 5344 5366 5391 5419 5447 5476 5503 5529 5555 5578
5575 5558 5541 5524 5506 5487 5469 5452 5434 5417 5400 5384 5368 5353 5338 5324 5311 5300 5290 5281 5274 5268 5265 5260 5257 5255 5255 5258 5263 5272 5283 5297 5314 5332 5353 5376 5402 5429 5458 5486 5513 5539 5563
5566 5550 5533 5516 5498 5480 5463 5445 5428 5412 5396 5380 5364 5349 5335 5321 5309 5297 5288 5279 5272 5265 5261 5258 5254 5252 5252 5255 5260 5267 5277 5290 5305 5322 5341 5362 5386 5412 5440 5469 5496 5522 5547
5558 5542 5525 5508 5491 5474 5456 5440 5424 5407 5392 5376 5362 5347 5333 5319 5307 5296 5286 5277 5270 5263 5258 5255 5252 5250 5250 5252 5257 5263 5273 5285 5299 5314 5331 5350 5372 5397 5424 5452 5479 5506 5532
5550 5534 5518 5501 5484 5467 5451 5434 5419 5403 5387 5372 5358 5344 5331 5318 5306 5295 5285 5276 5269 5262 5257 5253 5250 5248 5248 5250 5254 5261 5270 5281 5293 5307 5323 5341 5361 5383 5408 5435 5462 5490 5518
5542 5527 5511 5494 5478 5462 5445 5429 5414 5399 5384 5369 5355 5342 5329 5316 5305 5294 5284 5276 5268 5262 5256 5252 5249 5247 5247 5249 5252 5259 5267 5277 5289 5302 5317 5333 5351 5372 5396 5423 5453 5480 5506
5535 5520 5504 5488 5472 5456 5440 5425 5411 5396 5382 5367 5353 5339 5326 5315 5304 5293 5284 5276 5268 5262 5256 5252 5249 5247 5246 5248 5251 5257 5265 5274 5285 5297 5311 5326 5344 5364 5385 5411 5436 5463 5490
5528 5513 5498 5482 5466 5451 5436 5420 5406 5392 5377 5364 5350 5338 5325 5314 5303 5293 5284 5276 5268 5262 5256 5252 5249 5247 5246 5247 5250 5255 5262 5271 5283 5294 5307 5321 5337 5356 5376 5399 5424 5450 5476
5520 5506 5492 5476 5461 5446 5431 5416 5402 5388 5374 5361 5348 5336 5324 5313 5303 5294 5285 5277 5269 5262 5257 5253 5249 5247 5246 5246 5249 5254 5261 5269 5279 5290 5302 5317 5331 5348 5366 5388 5412 5437 5463
5513 5500 5486 5471 5456 5442 5427 5413 5399 5385 5372 5359 5346 5334 5323 5312 5302 5293 5285 5277 5270 5263 5257 5253 5249 5246 5245 5246 5248 5253 5259 5267 5276 5287 5298 5311 5325 5341 5357 5378 5401 5426 5452
5506 5493 5480 5466 5452 5438 5424 5410 5396 5383 5370 5357 5345 5333 5322 5311 5302 5293 5285 5277 5270 5264 5257 5252 5248 5246 5244 5245 5247 5252 5258 5265 5274 5284 5295 5307 5319 5334 5350 5371 5393 5416 5441
5499 5487 5474 5461 5448 5434 5420 5407 5393 5381 5369 5357 5344 5332 5321 5310 5301 5292 5285 5278 5271 5264 5258 5252 5248 5245 5244 5244 5246 5250 5255 5263 5271 5281 5292 5302 5313 5326 5343 5361 5382 5405 5429